Tracking 29892 objects as of 21-Nov-2024
HD Live streaming from Space Station
objects crossing your sky now

CZ-6A DEB

Track CZ-6A DEB now!
10-day predictions


NORAD ID: 56638
Int'l Code: 2022-151AFN
Perigee: 805.9 km
Apogee: 878.0 km
Inclination: 98.9 °
Period: 101.6 minutes
Semi major axis: 7212 km
RCS: Unknown
Launch date: November 11, 2022
Source: People's Republic of China (PRC)
Launch site: Taiyaun Space Center, China (TSC)

Note: This is SATELLITE DEBRIS
Your satellite tracking list
Your tracking list is empty




NASA's NSSDC Master Catalog

Two Line Element Set (TLE):
1 56638U 22151AFN 24323.77366433  .00000976  00000-0  49962-3 0  9997
2 56638  98.8547 335.5775 0049996 205.9151 153.9518 14.17197969 81258
Source of the keplerian elements: AFSPC